Elko, NV

5:39 AM PDT on April 25, 2017 (GMT -0700)
Elko Regional

Weather History for KEKO - October, 2013

Change the Weather History Date:

Tuesday, October 8, 2013

  Actual Average Record
Temperature  
Mean Temperature 49 °F 50 °F  
Max Temperature 60 °F 68 °F 89 °F (1917)
Min Temperature 38 °F 31 °F 14 °F (1927)
Degree Days  
Heating Degree Days 16 15  
Month to date heating degree days 137 112  
Since 1 July heating degree days 310 370  
Cooling Degree Days 0 0  
Month to date cooling degree days 0 0  
Year to date cooling degree days 776 383  
Moisture  
Dew Point 17 °F    
Average Humidity 29    
Maximum Humidity 41    
Minimum Humidity 16    
Precipitation  
Precipitation 0.00 in 0.02 in 0.34 in (1973)
Month to date precipitation T 0.16  
Year to date precipitation 4.85 7.01  
Snow  
Snow 0.00 in 0.00 in T in (1985)
Month to date snowfall T 0.1  
Since 1 July snowfall T 0.2  
Since 1 September snowfall T 0.2  
Snow Depth 0.00 in    
Sea Level Pressure  
Sea Level Pressure 29.84 in    
Wind  
Wind Speed 5 mph (West)    
Max Wind Speed 18 mph    
Max Gust Speed 23 mph    
Visibility 10 miles    
Events      
T = Trace of Precipitation, MM = Missing Value Source: NWS Daily Summary

Daily Weather History Graph

Daily Weather History Graph

Search for Another Location

Airport or City:

Trip Planner

Search our weather history database for the weather conditions in past years. The results will help you decide how hot, cold, wet, or windy it might be!

Date:

Astronomy

Oct. 08, 2013 Rise Set
Actual Time 6:47 AM PDT 6:13 PM PDT
Civil Twilight 6:19 AM PDT 6:40 PM PDT
Nautical Twilight 5:48 AM PDT 7:12 PM PDT
Astronomical Twilight 5:16 AM PDT 7:44 PM PDT
Moon 10:47 AM PDT (10/8) 8:52 PM PDT (10/8)
Length of Visible Light 12h 20m
Length of Day
11h 25m
Waxing Crescent, 17% of the Moon is Illuminated
Oct 8
Waxing Crescent
Oct 11
First Quarter
Oct 18
Full
Oct 26
Last Quarter
Nov 3
New

Hourly Weather History & Observations

Time (PDT) Temp. Windchill Dew Point Humidity Pressure Visibility Wind Dir Wind Speed Gust Speed Precip Events Conditions
12:56 AM 41.0 °F 38.0 °F 12.0 °F 31% 29.84 in 10.0 mi ENE 4.6 mph - N/A   Clear
1:56 AM 37.9 °F - 15.1 °F 39% 29.86 in 10.0 mi Calm Calm - N/A   Clear
2:56 AM 39.9 °F - 16.0 °F 38% 29.85 in 10.0 mi Calm Calm - N/A   Clear
3:56 AM 41.0 °F - 15.1 °F 35% 29.86 in 10.0 mi Calm Calm - N/A   Clear
4:56 AM 39.9 °F - 16.0 °F 38% 29.86 in 10.0 mi Calm Calm - N/A   Partly Cloudy
5:56 AM 41.0 °F 39.0 °F 14.0 °F 33% 29.88 in 10.0 mi West 3.5 mph - N/A   Clear
6:56 AM 42.1 °F - 18.0 °F 38% 29.91 in 10.0 mi Calm Calm - N/A   Clear
7:56 AM 44.1 °F 40.1 °F 23.0 °F 43% 29.94 in 10.0 mi West 6.9 mph - N/A   Clear
8:56 AM 48.9 °F - 24.1 °F 38% 29.95 in 10.0 mi SW 4.6 mph - N/A   Clear
9:56 AM 50.0 °F - 25.0 °F 38% 29.95 in 10.0 mi Calm Calm - N/A   Clear
10:56 AM 53.1 °F - 26.1 °F 35% 29.94 in 10.0 mi Calm Calm - N/A   Clear
11:56 AM 57.0 °F - 25.0 °F 29% 29.90 in 10.0 mi West 8.1 mph 16.1 mph N/A   Clear
12:56 PM 57.9 °F - 21.0 °F 24% 29.87 in 10.0 mi WSW 9.2 mph 17.3 mph N/A   Clear
1:56 PM 59.0 °F - 15.1 °F 18% 29.85 in 10.0 mi WSW 10.4 mph - N/A   Clear
2:56 PM 59.0 °F - 17.1 °F 20% 29.82 in 10.0 mi SSW 15.0 mph 18.4 mph N/A   Clear
3:56 PM 60.1 °F - 14.0 °F 16% 29.80 in 10.0 mi SW 10.4 mph 18.4 mph N/A   Clear
4:56 PM 57.9 °F - 12.9 °F 17% 29.80 in 10.0 mi West 8.1 mph - N/A   Clear
5:56 PM 53.1 °F - 14.0 °F 21% 29.79 in 10.0 mi West 5.8 mph - N/A   Clear
6:56 PM 50.0 °F - 14.0 °F 24% 29.79 in 10.0 mi Calm Calm - N/A   Clear
7:56 PM 44.1 °F - 12.9 °F 28% 29.78 in 10.0 mi Calm Calm - N/A   Clear
8:56 PM 44.1 °F 40.8 °F 12.9 °F 28% 29.76 in 10.0 mi East 5.8 mph - N/A   Clear
9:56 PM 42.1 °F 39.2 °F 14.0 °F 32% 29.75 in 10.0 mi ENE 4.6 mph - N/A   Clear
10:56 PM 46.0 °F 41.0 °F 19.0 °F 34% 29.72 in 10.0 mi NNE 10.4 mph - N/A   Clear
11:56 PM 46.0 °F 44.8 °F 19.9 °F 35% 29.70 in 10.0 mi NNE 3.5 mph - N/A   Overcast